This demonstration page uses our WeatherBlox Daily Observations layout. Learn more.

Left ArrowRight Arrow

Hourly Observations for July 15, 2017

Temp ( °F °C ) Dew Point ( °F °C ) Humidity (%) Winds ( mph kmh ) Pressure ( in mb ) Visibility ( mi km ) Precip ( " mm )
12:15 am 00:15 Clear 70 21 67 19.5 91 91 Calm 30.12 1020 10 16 0.00 0.00
12:35 am 00:35 Clear 70 21 67 19.5 91 91 Calm 30.12 1020 7 11 0.00 0.00
12:55 am 00:55 Clear 69 20.6 67 19.5 93 93 Calm 30.12 1020 7 11 0.00 0.00
1:15 am 01:15 Clear 69 20.3 66 18.8 91 91 S 5 7 30.12 1020 10 16 0.00 0.00
1:35 am 01:35 Clear 69 20.5 66 19.1 92 92 Calm 30.12 1020 10 16 0.00 0.00
1:55 am 01:55 Clear 70 21 67 19.3 90 90 Calm 30.12 1020 10 16 0.00 0.00
2:15 am 02:15 Clear 69 20.7 67 19.2 91 91 Calm 30.12 1020 10 16 0.00 0.00
2:35 am 02:35 Clear 69 20.7 66 18.8 89 89 S 3 6 30.09 1019 10 16 0.00 0.00
2:55 am 02:55 Clear 69 20.5 66 18.7 89 89 Calm 30.09 1019 10 16 0.00 0.00
3:15 am 03:15 Clear 69 20.4 66 18.8 91 91 Calm 30.09 1019 10 16 0.00 0.00
3:35 am 03:35 Clear 66 18.8 64 17.6 93 93 Calm 30.09 1019 7 11 0.00 0.00
3:55 am 03:55 Clear 66 19 64 17.8 93 93 Calm 30.09 1019 7 11 0.00 0.00
4:15 am 04:15 Clear 65 18.4 63 17.3 93 93 Calm 30.09 1019 7 11 0.00 0.00
4:35 am 04:35 Clear with Mist and Fog 65 18.3 63 17.3 94 94 N 5 7 30.09 1019 5 8 0.00 0.00
4:55 am 04:55 Clear with Mist and Fog 65 18.3 63 17.3 94 94 Calm 30.09 1019 5 8 0.00 0.00
5:15 am 05:15 Clear with Mist and Fog 64 18 63 17 94 94 NNW 5 7 30.09 1019 4 6 0.00 0.00
5:35 am 05:35 Clear with Mist and Fog 65 18.1 63 17.1 94 94 NNW 5 7 30.09 1019 5 8 0.00 0.00
5:55 am 05:55 Clear with Mist and Fog 64 17.9 62 16.9 94 94 Calm 30.15 1021 5 8 0.00 0.00
6:15 am 06:15 Clear with Mist and Fog 64 17.9 62 16.9 94 94 Calm 30.15 1021 4 6 0.00 0.00
6:35 am 06:35 Sunny with Mist and Fog 63 17.3 61 16.2 93 93 Calm 30.15 1021 3 4 0.00 0.00
6:55 am 06:55 Sunny with Mist and Fog 64 17.5 62 16.6 95 95 Calm 30.15 1021 4 6 0.00 0.00
7:15 am 07:15 Sunny with Mist and Fog 64 17.9 63 17 95 95 Calm 30.15 1021 3 4 0.00 0.00
7:35 am 07:35 Sunny with Mist and Fog 67 19.5 65 18.6 95 95 Calm 30.12 1020 3 5 0.00 0.00
7:55 am 07:55 Sunny with Mist and Fog 69 20.5 66 19.1 92 92 Calm 30.12 1020 4 6 0.00 0.00
8:15 am 08:15 Sunny with Mist and Fog 70 21.3 67 19.7 91 91 Calm 30.12 1020 4 6 0.00 0.00
8:35 am 08:35 Sunny with Mist and Fog 72 22.3 68 19.9 86 86 Calm 30.09 1019 5 8 0.00 0.00
8:55 am 08:55 Sunny 75 24 69 20.6 81 81 SSW 3 6 30.09 1019 7 11 0.00 0.00
9:15 am 09:15 Sunny 76 24.5 70 21.2 82 82 SSW 3 6 30.06 1018 7 11 0.00 0.00
9:35 am 09:35 Sunny 78 25.3 71 21.8 81 81 Calm 30.06 1018 7 11 0.00 0.00
9:55 am 09:55 Sunny 79 26.1 72 22 78 78 Calm 30.06 1018 10 16 0.00 0.00
10:15 am 10:15 Sunny 80 26.5 71 21.8 75 75 Calm 30.06 1018 10 16 0.00 0.00
10:35 am 10:35 Sunny 82 27.5 71 21.8 71 71 Calm 30.06 1018 10 16 0.00 0.00
10:55 am 10:55 Sunny 83 28.2 71 21.7 68 68 Calm 30.06 1018 10 16 0.00 0.00
11:15 am 11:15 Sunny 86 29.8 69 20.7 58 58 SW 3 6 30.03 1017 10 16 0.00 0.00
11:35 am 11:35 Sunny 86 30.1 70 21.1 59 59 Calm 30.03 1017 10 16 0.00 0.00
11:55 am 11:55 Sunny 87 30.8 70 21.1 56 56 SW 7 11 30.00 1016 10 16 0.00 0.00
12:15 pm 12:15 Sunny 89 31.6 66 18.7 46 46 WSW 6 9 30.00 1016 10 16 0.00 0.00
12:35 pm 12:35 Sunny 90 32.3 60 15.8 37 37 SSE 7 11 29.97 1015 10 16 0.00 0.00
12:55 pm 12:55 Sunny 91 32.7 59 15.1 35 35 SSE 5 7 29.97 1015 10 16 0.00 0.00
1:15 pm 13:15 Sunny 91 32.5 60 15.5 36 36 SSE 8 13 29.97 1015 10 16 0.00 0.00
1:35 pm 13:35 Sunny 91 32.7 58 14.2 33 33 SSE 7 11 29.97 1015 10 16 0.00 0.00
1:55 pm 13:55 Sunny 90 32.2 62 16.4 39 39 SSE 10 17 29.97 1015 10 16 0.00 0.00
2:15 pm 14:15 Sunny 91 32.5 60 15.8 37 37 SSE 10 17 29.97 1015 10 16 0.00 0.00
2:35 pm 14:35 Sunny 91 32.6 62 16.6 38 38 SE 10 17 29.94 1014 10 16 0.00 0.00
2:55 pm 14:55 Sunny 91 32.8 61 16.1 37 37 SSE 8 13 29.94 1014 10 16 0.00 0.00
3:15 pm 15:15 Sunny 92 33.1 62 16.6 37 37 SSE 9 15 29.94 1014 10 16 0.00 0.00
3:35 pm 15:35 Sunny 92 33.1 61 16.2 36 36 SE 5 7 29.94 1014 10 16 0.00 0.00
3:55 pm 15:55 Sunny 91 32.7 66 18.8 44 44 ESE 9 15 29.94 1014 10 16 0.00 0.00
4:15 pm 16:15 Sunny 91 32.9 65 18.1 41 41 ESE 7 11 29.94 1014 10 16 0.00 0.00
4:35 pm 16:35 Sunny 92 33.2 64 17.5 39 39 SE 10 17 29.94 1014 10 16 0.00 0.00
4:55 pm 16:55 Sunny 91 33 63 17.3 39 39 S 9 15 29.91 1013 10 16 0.00 0.00
5:15 pm 17:15 Sunny 91 32.8 64 18 41 41 S 9 15 29.91 1013 10 16 0.00 0.00
5:35 pm 17:35 Sunny 91 32.6 63 17.4 40 40 S 9 15 29.91 1013 10 16 0.00 0.00
5:55 pm 17:55 Sunny 91 32.5 65 18.4 43 43 S 9 15 29.91 1013 10 16 0.00 0.00
6:15 pm 18:15 Sunny 90 32.2 65 18.3 44 44 SSE 10 17 29.91 1013 10 16 0.00 0.00
6:35 pm 18:35 Sunny 89 31.7 67 19.4 48 48 SSE 13 20 29.91 1013 10 16 0.00 0.00
6:55 pm 18:55 Sunny 89 31.5 66 18.9 47 47 SSE 12 19 29.94 1014 10 16 0.00 0.00
7:15 pm 19:15 Sunny 87 30.7 66 19 50 50 SSE 9 15 29.94 1014 10 16 0.00 0.00
7:35 pm 19:35 Sunny 87 30.3 67 19.3 52 52 SSE 9 15 29.94 1014 10 16 0.00 0.00
7:55 pm 19:55 Sunny 85 29.5 68 19.9 56 56 SSE 7 11 29.94 1014 10 16 0.00 0.00
8:15 pm 20:15 Sunny 85 29.5 69 20.4 58 58 SSE 6 9 29.94 1014 10 16 0.00 0.00
8:35 pm 20:35 Sunny 83 28.3 69 20.7 63 63 SSE 3 6 29.94 1014 10 16 0.00 0.00
8:55 pm 20:55 Sunny 82 27.6 69 20.6 66 66 SSE 7 11 29.97 1015 10 16 0.00 0.00
9:15 pm 21:15 Clear 80 26.7 69 20.8 70 70 SE 5 7 29.97 1015 10 16 0.00 0.00
9:35 pm 21:35 Clear 79 26 69 20.6 72 72 SSE 6 9 29.97 1015 10 16 0.00 0.00
9:55 pm 21:55 Clear 78 25.3 69 20.7 76 76 SSE 6 9 29.97 1015 10 16 0.00 0.00
10:15 pm 22:15 Clear 77 25.1 69 20.8 77 77 SSE 5 7 29.97 1015 10 16 0.00 0.00
10:35 pm 22:35 Clear 77 25.1 69 20.5 76 76 SSE 5 7 29.97 1015 10 16 0.00 0.00
10:55 pm 22:55 Clear 76 24.3 69 20.5 79 79 S 5 7 29.97 1015 10 16 0.00 0.00
11:15 pm 23:15 Clear 75 23.9 69 20.4 81 81 Calm 30.00 1016 10 16 0.00 0.00
11:35 pm 23:35 Clear 73 23 68 20 83 83 SSW 5 7 30.03 1017 10 16 0.00 0.00
11:55 pm 23:55 Clear 73 22.8 67 19.7 83 83 Calm 30.03 1017 10 16 0.00 0.00

Powered by AerisWeather